Погода в Нижнегнутове

Россия / Волгоградская область     48°02′47″N   42°22′58″E
темп.,
°C
ветер,
м/с
пор.,
м/с
влажн.,
%
обл.,
%
осадки,
мм/ч
давл.,
гПа
погр.,
м
17 апреля, сб
сб1700:00+12ююв357898 0.0 1019142
03:00+10юз3494100 0.2 1019105
06:00+11юз2396100 0.8 1018141
09:00+11зюз5696100 6.6 1019411
12:00+10ссз46809 2.6 1021311
15:00+16зюз56435 2.6 10202036
18:00+15зюз465210 0.0 1020197
21:00+10з476483 0.0 1021119
18 апреля, вс
вс1800:00+8з36708 0.0 102192
03:00+7ссз34765 0.0 102149
06:00+7ссв337690 0.0 102154
09:00+12ссв335793 0.0 1020474
12:00+15юв224698 0.0 10191719
15:00+16ююв224395 0.0 10181686
18:00+13ю4565100 0.0 1018183
21:00+11ю2381100 0.2 1019144
19 апреля, пн
пн1900:00+11в2381100 0.1 1018243
03:00+10в2283100 0.1 1017193
06:00+10ссв2483100 0.0 1017261
09:00+11всв338394 0.5 1017318
12:00+14в227396 0.1 1016691
15:00+13юв2176100 0.1 1016518
18:00+13в2383100 0.0 1015198
21:00+11в3590100 0.0 1015164
20 апреля, вт
вт2000:00+11в479599 0.0 1014244
03:00+11в5997100 0.5 1012379
06:00+11в61298100 2.0 1010386
09:00+14вюв91691100 2.3 1008863
12:00+18юв132170100 0.3 10061222
15:00+19юв121957100 0.3 10051295
18:00+17ююв111869100 0.9 10041208
21:00+13ююв71188100 12.8 1009431
21 апреля, ср
ср2100:00+12ююв9158894 0.1 1011766
03:00+10ююз71278100 0.3 10131167
06:00+10ююз71280100 0.0 1015910
09:00+13юз81165100 0.0 10171379
12:00+13юз6765100 0.0 10191223
15:00+15зюз5658100 0.0 10191531
18:00+12ююв5680100 0.1 1021297
21:00+12ю4683100 0.4 1022180